Time,TemperatureF,DewpointF,PressureIn,WindDirection,WindDirectionDegrees,WindSpeedMPH,WindSpeedGustMPH,Humidity,HourlyPrecipIn,Conditions,Clouds,dailyrainin,SolarRadiationWatts/m^2,SoftwareType,DateUTC
2013-07-14 00:01:00,67.7,66.5,30.30,SSE,165,0.0,0.0,96,0.00,,,0.00,0,HR-IXPWINDi_r2_v1.2.,2013-07-14 04:01:00,
2013-07-14 00:06:00,67.7,66.5,30.29,SSE,165,0.0,0.0,96,0.00,,,0.00,0,HR-IXPWINDi_r2_v1.2.,2013-07-14 04:06:00,
2013-07-14 00:11:00,67.8,66.6,30.29,SSE,165,0.0,0.0,96,0.00,,,0.00,0,HR-IXPWINDi_r2_v1.2.,2013-07-14 04:11:00,
2013-07-14 00:16:00,67.7,66.5,30.29,SSE,165,0.0,1.0,96,0.00,,,0.00,0,HR-IXPWINDi_r2_v1.2.,2013-07-14 04:16:00,
2013-07-14 00:21:00,67.8,66.6,30.29,SSE,165,0.0,2.0,96,0.00,,,0.00,0,HR-IXPWINDi_r2_v1.2.,2013-07-14 04:21:00,
2013-07-14 00:26:00,67.9,66.7,30.29,SSE,165,0.0,2.0,96,0.00,,,0.00,0,HR-IXPWINDi_r2_v1.2.,2013-07-14 04:26:00,
2013-07-14 00:32:00,67.9,66.7,30.29,SSE,165,0.0,2.0,96,0.00,,,0.00,0,HR-IXPWINDi_r2_v1.2.,2013-07-14 04:32:00,
2013-07-14 00:37:00,67.9,66.7,30.29,SSE,165,0.0,1.0,96,0.00,,,0.00,0,HR-IXPWINDi_r2_v1.2.,2013-07-14 04:37:00,
2013-07-14 00:42:00,67.9,66.7,30.29,SSE,165,0.0,0.0,96,0.00,,,0.00,0,HR-IXPWINDi_r2_v1.2.,2013-07-14 04:42:00,
2013-07-14 00:47:00,67.9,66.7,30.29,SSE,165,0.0,0.0,96,0.00,,,0.00,0,HR-IXPWINDi_r2_v1.2.,2013-07-14 04:47:00,
2013-07-14 00:52:00,67.8,66.6,30.29,SSE,165,0.0,0.0,96,0.00,,,0.00,0,HR-IXPWINDi_r2_v1.2.,2013-07-14 04:52:00,
2013-07-14 00:57:00,67.7,66.5,30.29,SSE,165,0.0,0.0,96,0.00,,,0.00,0,HR-IXPWINDi_r2_v1.2.,2013-07-14 04:57:00,
2013-07-14 01:02:00,67.8,66.9,30.29,SSE,165,2.0,2.0,97,0.00,,,0.00,0,HR-IXPWINDi_r2_v1.2.,2013-07-14 05:02:00,
2013-07-14 01:08:00,67.8,66.9,30.28,SSE,165,1.0,3.0,97,0.00,,,0.00,0,HR-IXPWINDi_r2_v1.2.,2013-07-14 05:08:00,
2013-07-14 01:13:00,67.9,67.0,30.28,SSE,165,0.0,3.0,97,0.00,,,0.00,0,HR-IXPWINDi_r2_v1.2.,2013-07-14 05:13:00,
2013-07-14 01:18:00,67.9,67.0,30.29,SSE,165,0.0,2.0,97,0.00,,,0.00,0,HR-IXPWINDi_r2_v1.2.,2013-07-14 05:18:00,
2013-07-14 01:23:00,68.0,67.1,30.29,SSE,165,0.0,1.0,97,0.00,,,0.00,0,HR-IXPWINDi_r2_v1.2.,2013-07-14 05:23:00,
2013-07-14 01:28:00,67.9,67.0,30.29,SSE,165,0.0,1.0,97,0.00,,,0.00,0,HR-IXPWINDi_r2_v1.2.,2013-07-14 05:28:00,
2013-07-14 01:33:00,67.8,66.9,30.29,SSE,165,3.0,3.0,97,0.00,,,0.00,0,HR-IXPWINDi_r2_v1.2.,2013-07-14 05:33:00,
2013-07-14 01:38:00,67.8,66.9,30.29,East,83,3.0,6.0,97,0.00,,,0.00,0,HR-IXPWINDi_r2_v1.2.,2013-07-14 05:38:00,
2013-07-14 01:44:00,67.9,67.0,30.29,East,82,2.0,6.0,97,0.00,,,0.00,0,HR-IXPWINDi_r2_v1.2.,2013-07-14 05:44:00,
2013-07-14 01:49:00,68.0,67.1,30.29,East,82,0.0,5.0,97,0.00,,,0.00,0,HR-IXPWINDi_r2_v1.2.,2013-07-14 05:49:00,
2013-07-14 01:54:00,68.1,67.2,30.29,East,82,5.0,5.0,97,0.00,,,0.00,0,HR-IXPWINDi_r2_v1.2.,2013-07-14 05:54:00,
2013-07-14 01:59:00,68.1,67.2,30.29,ENE,71,2.0,6.0,97,0.00,,,0.00,0,HR-IXPWINDi_r2_v1.2.,2013-07-14 05:59:00,
2013-07-14 02:04:00,68.1,67.2,30.29,NE,50,1.0,6.0,97,0.00,,,0.00,0,HR-IXPWINDi_r2_v1.2.,2013-07-14 06:04:00,
2013-07-14 02:09:00,68.0,67.1,30.29,NE,43,4.0,5.0,97,0.00,,,0.00,0,HR-IXPWINDi_r2_v1.2.,2013-07-14 06:09:00,
2013-07-14 02:15:00,67.9,67.0,30.29,NE,54,2.0,5.0,97,0.00,,,0.00,0,HR-IXPWINDi_r2_v1.2.,2013-07-14 06:15:00,
2013-07-14 02:20:00,67.9,67.0,30.29,NE,56,3.0,6.0,97,0.00,,,0.00,0,HR-IXPWINDi_r2_v1.2.,2013-07-14 06:20:00,
2013-07-14 02:25:00,67.9,67.0,30.29,NE,51,4.0,7.0,97,0.00,,,0.00,0,HR-IXPWINDi_r2_v1.2.,2013-07-14 06:25:00,
2013-07-14 02:30:00,67.9,67.0,30.29,NE,56,3.0,7.0,97,0.00,,,0.00,0,HR-IXPWINDi_r2_v1.2.,2013-07-14 06:30:00,
2013-07-14 02:35:00,67.9,67.0,30.29,ENE,58,4.0,7.0,97,0.00,,,0.00,0,HR-IXPWINDi_r2_v1.2.,2013-07-14 06:35:00,
2013-07-14 02:41:00,67.8,66.9,30.29,ENE,58,3.0,7.0,97,0.00,,,0.00,0,HR-IXPWINDi_r2_v1.2.,2013-07-14 06:41:00,
2013-07-14 02:46:00,67.8,66.9,30.29,ENE,58,2.0,4.0,97,0.00,,,0.00,0,HR-IXPWINDi_r2_v1.2.,2013-07-14 06:46:00,
2013-07-14 02:51:00,67.9,67.0,30.29,ENE,58,0.0,4.0,97,0.00,,,0.00,0,HR-IXPWINDi_r2_v1.2.,2013-07-14 06:51:00,
2013-07-14 02:56:00,67.9,67.0,30.29,ENE,58,0.0,4.0,97,0.00,,,0.00,0,HR-IXPWINDi_r2_v1.2.,2013-07-14 06:56:00,
2013-07-14 03:01:00,67.9,67.0,30.29,ENE,58,0.0,2.0,97,0.00,,,0.00,0,HR-IXPWINDi_r2_v1.2.,2013-07-14 07:01:00,
2013-07-14 03:07:00,67.9,67.0,30.29,ENE,58,0.0,1.0,97,0.00,,,0.00,0,HR-IXPWINDi_r2_v1.2.,2013-07-14 07:07:00,
2013-07-14 03:12:00,67.9,67.0,30.29,ENE,58,0.0,0.0,97,0.00,,,0.00,0,HR-IXPWINDi_r2_v1.2.,2013-07-14 07:12:00,
2013-07-14 03:17:00,67.9,67.0,30.29,ENE,58,0.0,0.0,97,0.00,,,0.00,0,HR-IXPWINDi_r2_v1.2.,2013-07-14 07:17:00,
2013-07-14 03:22:00,68.0,67.1,30.28,ENE,58,0.0,0.0,97,0.00,,,0.00,0,HR-IXPWINDi_r2_v1.2.,2013-07-14 07:22:00,
2013-07-14 03:27:00,68.1,67.2,30.28,ENE,58,0.0,0.0,97,0.00,,,0.00,0,HR-IXPWINDi_r2_v1.2.,2013-07-14 07:27:00,
2013-07-14 03:32:00,68.1,67.2,30.28,ENE,58,0.0,0.0,97,0.00,,,0.00,0,HR-IXPWINDi_r2_v1.2.,2013-07-14 07:32:00,
2013-07-14 03:37:00,68.1,67.2,30.28,ENE,58,0.0,1.0,97,0.00,,,0.00,0,HR-IXPWINDi_r2_v1.2.,2013-07-14 07:37:00,
2013-07-14 03:42:00,68.1,67.2,30.28,ENE,58,0.0,2.0,97,0.00,,,0.00,0,HR-IXPWINDi_r2_v1.2.,2013-07-14 07:42:00,
2013-07-14 03:48:00,68.1,67.2,30.28,ENE,58,2.0,2.0,97,0.00,,,0.00,0,HR-IXPWINDi_r2_v1.2.,2013-07-14 07:48:00,
2013-07-14 03:53:00,68.1,67.2,30.29,ENE,58,0.0,2.0,97,0.00,,,0.00,0,HR-IXPWINDi_r2_v1.2.,2013-07-14 07:53:00,
2013-07-14 03:58:00,68.1,67.2,30.29,ENE,58,1.0,3.0,97,0.00,,,0.00,0,HR-IXPWINDi_r2_v1.2.,2013-07-14 07:58:00,
2013-07-14 04:03:00,68.1,67.2,30.29,ENE,58,0.0,3.0,97,0.00,,,0.00,0,HR-IXPWINDi_r2_v1.2.,2013-07-14 08:03:00,
2013-07-14 04:09:00,68.1,67.2,30.28,ENE,58,0.0,3.0,97,0.00,,,0.00,0,HR-IXPWINDi_r2_v1.2.,2013-07-14 08:09:00,
2013-07-14 04:14:00,68.2,67.2,30.28,ENE,58,2.0,3.0,97,0.00,,,0.00,0,HR-IXPWINDi_r2_v1.2.,2013-07-14 08:14:00,
2013-07-14 04:19:00,68.2,67.2,30.28,ENE,58,1.0,3.0,97,0.00,,,0.00,0,HR-IXPWINDi_r2_v1.2.,2013-07-14 08:19:00,
2013-07-14 04:24:00,68.3,67.3,30.28,ENE,58,0.0,3.0,97,0.00,,,0.00,0,HR-IXPWINDi_r2_v1.2.,2013-07-14 08:24:00,
2013-07-14 04:30:00,68.3,67.3,30.28,ENE,58,0.0,2.0,97,0.00,,,0.00,0,HR-IXPWINDi_r2_v1.2.,2013-07-14 08:30:00,
2013-07-14 04:35:00,68.4,67.4,30.28,ENE,58,0.0,1.0,97,0.00,,,0.00,0,HR-IXPWINDi_r2_v1.2.,2013-07-14 08:35:00,
2013-07-14 04:40:00,68.4,67.7,30.28,ENE,58,1.0,2.0,98,0.00,,,0.00,0,HR-IXPWINDi_r2_v1.2.,2013-07-14 08:40:00,
2013-07-14 04:45:00,68.5,67.8,30.28,ENE,58,0.0,2.0,98,0.00,,,0.00,0,HR-IXPWINDi_r2_v1.2.,2013-07-14 08:45:00,
2013-07-14 04:50:00,68.6,67.9,30.28,ENE,58,0.0,2.0,98,0.00,,,0.00,0,HR-IXPWINDi_r2_v1.2.,2013-07-14 08:50:00,
2013-07-14 04:56:00,68.5,67.8,30.28,ENE,58,0.0,1.0,98,0.00,,,0.00,0,HR-IXPWINDi_r2_v1.2.,2013-07-14 08:56:00,
2013-07-14 05:01:00,68.6,67.9,30.28,ENE,58,0.0,1.0,98,0.00,,,0.00,0,HR-IXPWINDi_r2_v1.2.,2013-07-14 09:01:00,
2013-07-14 05:06:00,68.7,68.0,30.28,ENE,58,0.0,1.0,98,0.00,,,0.00,0,HR-IXPWINDi_r2_v1.2.,2013-07-14 09:06:00,
2013-07-14 05:11:00,68.7,68.0,30.28,ENE,58,0.0,3.0,98,0.00,,,0.00,0,HR-IXPWINDi_r2_v1.2.,2013-07-14 09:11:00,
2013-07-14 05:16:00,68.6,67.9,30.28,ENE,58,1.0,3.0,98,0.00,,,0.00,0,HR-IXPWINDi_r2_v1.2.,2013-07-14 09:16:00,
2013-07-14 05:21:00,68.6,67.9,30.28,ENE,58,0.0,3.0,98,0.00,,,0.00,0,HR-IXPWINDi_r2_v1.2.,2013-07-14 09:21:00,
2013-07-14 05:26:00,68.5,67.8,30.28,ENE,58,0.0,2.0,98,0.00,,,0.00,0,HR-IXPWINDi_r2_v1.2.,2013-07-14 09:26:00,
2013-07-14 05:32:00,68.5,67.8,30.28,ENE,58,3.0,3.0,98,0.00,,,0.00,0,HR-IXPWINDi_r2_v1.2.,2013-07-14 09:32:00,
2013-07-14 05:37:00,68.6,67.9,30.28,ENE,58,3.0,3.0,98,0.00,,,0.00,5,HR-IXPWINDi_r2_v1.2.,2013-07-14 09:37:00,
2013-07-14 05:42:00,68.5,67.8,30.28,ENE,58,1.0,3.0,98,0.00,,,0.00,11,HR-IXPWINDi_r2_v1.2.,2013-07-14 09:42:00,
2013-07-14 05:47:00,68.5,67.8,30.28,ENE,58,0.0,3.0,98,0.00,,,0.00,12,HR-IXPWINDi_r2_v1.2.,2013-07-14 09:47:00,
2013-07-14 05:52:00,68.5,67.8,30.29,ENE,58,0.0,2.0,98,0.00,,,0.00,14,HR-IXPWINDi_r2_v1.2.,2013-07-14 09:52:00,
2013-07-14 05:57:00,68.6,67.9,30.29,ENE,58,0.0,0.0,98,0.00,,,0.00,12,HR-IXPWINDi_r2_v1.2.,2013-07-14 09:57:00,
2013-07-14 06:03:00,68.5,67.8,30.29,ENE,58,1.0,3.0,98,0.00,,,0.00,12,HR-IXPWINDi_r2_v1.2.,2013-07-14 10:03:00,
2013-07-14 06:08:00,68.3,67.6,30.29,ENE,63,3.0,3.0,98,0.00,,,0.00,18,HR-IXPWINDi_r2_v1.2.,2013-07-14 10:08:00,
2013-07-14 06:13:00,68.3,67.6,30.29,ENE,64,0.0,3.0,98,0.00,,,0.00,26,HR-IXPWINDi_r2_v1.2.,2013-07-14 10:13:00,
2013-07-14 06:18:00,68.3,67.6,30.29,ENE,65,0.0,3.0,98,0.00,,,0.00,37,HR-IXPWINDi_r2_v1.2.,2013-07-14 10:18:00,
2013-07-14 06:23:00,68.3,67.6,30.29,ENE,65,0.0,3.0,98,0.00,,,0.00,51,HR-IXPWINDi_r2_v1.2.,2013-07-14 10:23:00,
2013-07-14 06:29:00,68.4,67.7,30.29,ENE,65,1.0,2.0,98,0.00,,,0.00,63,HR-IXPWINDi_r2_v1.2.,2013-07-14 10:29:00,
2013-07-14 06:34:00,68.5,67.8,30.29,ENE,65,2.0,2.0,98,0.00,,,0.00,56,HR-IXPWINDi_r2_v1.2.,2013-07-14 10:34:00,
2013-07-14 06:39:00,68.7,68.0,30.29,ENE,65,0.0,2.0,98,0.00,,,0.00,81,HR-IXPWINDi_r2_v1.2.,2013-07-14 10:39:00,
2013-07-14 06:44:00,68.7,68.0,30.29,ENE,65,0.0,2.0,98,0.00,,,0.00,95,HR-IXPWINDi_r2_v1.2.,2013-07-14 10:44:00,
2013-07-14 06:50:00,68.8,68.1,30.29,ENE,65,0.0,1.0,98,0.00,,,0.00,192,HR-IXPWINDi_r2_v1.2.,2013-07-14 10:50:00,
2013-07-14 06:55:00,69.0,68.3,30.29,ENE,65,0.0,1.0,98,0.00,,,0.00,121,HR-IXPWINDi_r2_v1.2.,2013-07-14 10:55:00,
2013-07-14 07:00:00,69.1,68.4,30.29,ENE,65,1.0,2.0,98,0.00,,,0.00,223,HR-IXPWINDi_r2_v1.2.,2013-07-14 11:00:00,
2013-07-14 07:05:00,69.3,68.6,30.29,ENE,65,1.0,3.0,98,0.00,,,0.00,209,HR-IXPWINDi_r2_v1.2.,2013-07-14 11:05:00,
2013-07-14 07:10:00,69.4,68.7,30.29,ENE,65,1.0,3.0,98,0.00,,,0.00,227,HR-IXPWINDi_r2_v1.2.,2013-07-14 11:10:00,
2013-07-14 07:15:00,69.6,68.9,30.29,East,84,3.0,4.0,98,0.00,,,0.00,227,HR-IXPWINDi_r2_v1.2.,2013-07-14 11:15:00,
2013-07-14 07:20:00,69.9,69.2,30.29,SSW,209,2.0,4.0,98,0.00,,,0.00,279,HR-IXPWINDi_r2_v1.2.,2013-07-14 11:20:00,
2013-07-14 07:26:00,70.0,69.3,30.29,SSW,209,2.0,4.0,98,0.00,,,0.00,158,HR-IXPWINDi_r2_v1.2.,2013-07-14 11:26:00,
2013-07-14 07:31:00,70.3,69.3,30.29,SW,223,4.0,5.0,97,0.00,,,0.00,155,HR-IXPWINDi_r2_v1.2.,2013-07-14 11:31:00,
2013-07-14 07:36:00,70.4,69.4,30.30,WSW,242,3.0,5.0,97,0.00,,,0.00,142,HR-IXPWINDi_r2_v1.2.,2013-07-14 11:36:00,
2013-07-14 07:41:00,70.4,69.4,30.29,SW,230,5.0,7.0,97,0.00,,,0.00,137,HR-IXPWINDi_r2_v1.2.,2013-07-14 11:41:00,
2013-07-14 07:47:00,70.3,69.3,30.29,WSW,240,5.0,7.0,97,0.00,,,0.00,156,HR-IXPWINDi_r2_v1.2.,2013-07-14 11:47:00,
2013-07-14 07:52:00,70.2,69.2,30.30,WSW,238,3.0,7.0,97,0.00,,,0.00,230,HR-IXPWINDi_r2_v1.2.,2013-07-14 11:52:00,
2013-07-14 07:57:00,70.5,69.5,30.29,SW,217,4.0,7.0,97,0.00,,,0.00,325,HR-IXPWINDi_r2_v1.2.,2013-07-14 11:57:00,
2013-07-14 08:02:00,70.7,69.7,30.29,SW,226,4.0,6.0,97,0.00,,,0.00,376,HR-IXPWINDi_r2_v1.2.,2013-07-14 12:02:00,
2013-07-14 08:08:00,71.0,69.7,30.29,WSW,239,5.0,6.0,96,0.00,,,0.00,388,HR-IXPWINDi_r2_v1.2.,2013-07-14 12:08:00,
2013-07-14 08:13:00,71.3,70.0,30.29,SW,232,6.0,7.0,96,0.00,,,0.00,404,HR-IXPWINDi_r2_v1.2.,2013-07-14 12:13:00,
2013-07-14 08:18:00,71.5,70.2,30.29,SSW,204,6.0,7.0,96,0.00,,,0.00,418,HR-IXPWINDi_r2_v1.2.,2013-07-14 12:18:00,
2013-07-14 08:23:00,71.9,70.3,30.29,SSW,210,7.0,7.0,95,0.00,,,0.00,434,HR-IXPWINDi_r2_v1.2.,2013-07-14 12:23:00,
2013-07-14 08:29:00,72.4,70.8,30.28,SW,216,7.0,8.0,95,0.00,,,0.00,454,HR-IXPWINDi_r2_v1.2.,2013-07-14 12:29:00,
2013-07-14 08:34:00,72.9,71.0,30.29,SSW,207,7.0,8.0,94,0.00,,,0.00,471,HR-IXPWINDi_r2_v1.2.,2013-07-14 12:34:00,
2013-07-14 08:39:00,73.1,70.9,30.29,SSW,192,6.0,7.0,93,0.00,,,0.00,487,HR-IXPWINDi_r2_v1.2.,2013-07-14 12:39:00,
2013-07-14 08:44:00,73.3,71.1,30.29,SSW,200,7.0,7.0,93,0.00,,,0.00,496,HR-IXPWINDi_r2_v1.2.,2013-07-14 12:44:00,
2013-07-14 08:50:00,73.7,71.2,30.29,SSW,196,7.0,7.0,92,0.00,,,0.00,512,HR-IXPWINDi_r2_v1.2.,2013-07-14 12:50:00,
2013-07-14 08:56:00,74.0,71.5,30.28,SSW,194,4.0,8.0,92,0.00,,,0.00,527,HR-IXPWINDi_r2_v1.2.,2013-07-14 12:56:00,
2013-07-14 09:01:00,74.2,71.7,30.28,SSW,196,7.0,8.0,92,0.00,,,0.00,545,HR-IXPWINDi_r2_v1.2.,2013-07-14 13:01:00,
2013-07-14 09:06:00,74.6,71.7,30.28,SSW,192,5.0,7.0,91,0.00,,,0.00,555,HR-IXPWINDi_r2_v1.2.,2013-07-14 13:06:00,
2013-07-14 09:11:00,74.9,71.7,30.28,South,187,4.0,7.0,90,0.00,,,0.00,573,HR-IXPWINDi_r2_v1.2.,2013-07-14 13:11:00,
2013-07-14 09:16:00,75.1,71.9,30.28,South,190,4.0,6.0,90,0.00,,,0.00,589,HR-IXPWINDi_r2_v1.2.,2013-07-14 13:16:00,
2013-07-14 09:21:00,75.6,72.1,30.28,SSW,194,5.0,6.0,89,0.00,,,0.00,603,HR-IXPWINDi_r2_v1.2.,2013-07-14 13:21:00,
2013-07-14 09:27:00,75.9,72.4,30.27,SSW,195,7.0,7.0,89,0.00,,,0.00,615,HR-IXPWINDi_r2_v1.2.,2013-07-14 13:27:00,
2013-07-14 09:32:00,76.6,72.7,30.27,SSW,200,4.0,7.0,88,0.00,,,0.00,617,HR-IXPWINDi_r2_v1.2.,2013-07-14 13:32:00,
2013-07-14 09:37:00,77.1,72.5,30.27,South,179,1.0,7.0,86,0.00,,,0.00,629,HR-IXPWINDi_r2_v1.2.,2013-07-14 13:37:00,
2013-07-14 09:42:00,76.9,72.7,30.27,South,189,4.0,6.0,87,0.00,,,0.00,654,HR-IXPWINDi_r2_v1.2.,2013-07-14 13:42:00,
2013-07-14 09:47:00,78.1,73.5,30.27,SSE,165,0.0,6.0,86,0.00,,,0.00,664,HR-IXPWINDi_r2_v1.2.,2013-07-14 13:47:00,
2013-07-14 09:52:00,79.1,73.4,30.27,SSW,208,2.0,5.0,83,0.00,,,0.00,677,HR-IXPWINDi_r2_v1.2.,2013-07-14 13:52:00,
2013-07-14 09:57:00,79.9,73.1,30.26,West,271,6.0,9.0,80,0.00,,,0.00,686,HR-IXPWINDi_r2_v1.2.,2013-07-14 13:57:00,
2013-07-14 10:03:00,81.8,73.0,30.26,WSW,252,7.0,10.0,75,0.00,,,0.00,700,HR-IXPWINDi_r2_v1.2.,2013-07-14 14:03:00,
2013-07-14 10:08:00,82.3,73.1,30.26,WSW,241,8.0,10.0,74,0.00,,,0.00,708,HR-IXPWINDi_r2_v1.2.,2013-07-14 14:08:00,
2013-07-14 10:13:00,82.7,73.1,30.26,SW,226,3.0,10.0,73,0.00,,,0.00,729,HR-IXPWINDi_r2_v1.2.,2013-07-14 14:13:00,
2013-07-14 10:18:00,84.1,73.6,30.26,NW,320,5.0,9.0,71,0.00,,,0.00,735,HR-IXPWINDi_r2_v1.2.,2013-07-14 14:18:00,
2013-07-14 10:23:00,84.9,73.5,30.26,SSW,208,2.0,7.0,69,0.00,,,0.00,744,HR-IXPWINDi_r2_v1.2.,2013-07-14 14:23:00,
2013-07-14 10:28:00,84.4,73.1,30.26,WNW,283,3.0,7.0,69,0.00,,,0.00,761,HR-IXPWINDi_r2_v1.2.,2013-07-14 14:28:00,
2013-07-14 10:34:00,85.1,72.4,30.26,WNW,295,4.0,11.0,66,0.00,,,0.00,782,HR-IXPWINDi_r2_v1.2.,2013-07-14 14:34:00,
2013-07-14 10:39:00,84.8,72.6,30.26,WSW,249,4.0,11.0,67,0.00,,,0.00,847,HR-IXPWINDi_r2_v1.2.,2013-07-14 14:39:00,
2013-07-14 10:44:00,85.4,72.2,30.26,NNW,340,3.0,11.0,65,0.00,,,0.00,856,HR-IXPWINDi_r2_v1.2.,2013-07-14 14:44:00,
2013-07-14 10:49:00,86.3,72.6,30.26,WNW,302,6.0,11.0,64,0.00,,,0.00,918,HR-IXPWINDi_r2_v1.2.,2013-07-14 14:49:00,
2013-07-14 10:54:00,85.4,72.2,30.26,NNW,334,5.0,9.0,65,0.00,,,0.00,930,HR-IXPWINDi_r2_v1.2.,2013-07-14 14:54:00,
2013-07-14 10:59:00,86.0,73.3,30.26,NNW,327,0.0,9.0,66,0.00,,,0.00,993,HR-IXPWINDi_r2_v1.2.,2013-07-14 14:59:00,
2013-07-14 11:05:00,85.7,72.1,30.26,NW,321,2.0,8.0,64,0.00,,,0.00,223,HR-IXPWINDi_r2_v1.2.,2013-07-14 15:05:00,
2013-07-14 11:10:00,85.5,72.3,30.26,North,10,0.0,9.0,65,0.00,,,0.00,942,HR-IXPWINDi_r2_v1.2.,2013-07-14 15:10:00,
2013-07-14 11:15:00,85.0,70.9,30.26,NNW,328,5.0,9.0,63,0.00,,,0.00,230,HR-IXPWINDi_r2_v1.2.,2013-07-14 15:15:00,
2013-07-14 11:20:00,84.9,70.9,30.26,NW,313,2.0,8.0,63,0.00,,,0.00,904,HR-IXPWINDi_r2_v1.2.,2013-07-14 15:20:00,
2013-07-14 11:25:00,85.7,71.6,30.26,West,273,6.0,7.0,63,0.00,,,0.00,947,HR-IXPWINDi_r2_v1.2.,2013-07-14 15:25:00,
2013-07-14 11:30:00,85.5,71.9,30.26,WNW,296,4.0,8.0,64,0.00,,,0.00,134,HR-IXPWINDi_r2_v1.2.,2013-07-14 15:30:00,
2013-07-14 11:36:00,85.9,70.8,30.26,West,279,4.0,11.0,61,0.00,,,0.00,921,HR-IXPWINDi_r2_v1.2.,2013-07-14 15:36:00,
2013-07-14 11:41:00,86.5,71.9,30.26,WSW,252,5.0,11.0,62,0.00,,,0.00,907,HR-IXPWINDi_r2_v1.2.,2013-07-14 15:41:00,
2013-07-14 11:46:00,87.7,72.1,30.26,WNW,298,2.0,8.0,60,0.00,,,0.00,939,HR-IXPWINDi_r2_v1.2.,2013-07-14 15:46:00,
2013-07-14 11:51:00,88.0,71.8,30.25,NE,36,0.0,8.0,59,0.00,,,0.00,984,HR-IXPWINDi_r2_v1.2.,2013-07-14 15:51:00,
2013-07-14 11:56:00,87.6,71.5,30.25,NNE,32,4.0,8.0,59,0.00,,,0.00,274,HR-IXPWINDi_r2_v1.2.,2013-07-14 15:56:00,
2013-07-14 12:01:00,87.4,70.8,30.25,NNW,328,5.0,8.0,58,0.00,,,0.00,1032,HR-IXPWINDi_r2_v1.2.,2013-07-14 16:01:00,
2013-07-14 12:06:00,87.4,71.8,30.25,North,355,3.0,8.0,60,0.00,,,0.00,244,HR-IXPWINDi_r2_v1.2.,2013-07-14 16:06:00,
2013-07-14 12:12:00,87.6,71.5,30.25,WNW,302,2.0,7.0,59,0.00,,,0.00,1023,HR-IXPWINDi_r2_v1.2.,2013-07-14 16:12:00,
2013-07-14 12:17:00,87.6,70.4,30.25,North,9,2.0,9.0,57,0.00,,,0.00,239,HR-IXPWINDi_r2_v1.2.,2013-07-14 16:17:00,
2013-07-14 12:22:00,88.3,70.6,30.25,NNE,28,3.0,9.0,56,0.00,,,0.00,991,HR-IXPWINDi_r2_v1.2.,2013-07-14 16:22:00,
2013-07-14 12:27:00,87.7,70.0,30.24,NNE,19,5.0,11.0,56,0.00,,,0.00,935,HR-IXPWINDi_r2_v1.2.,2013-07-14 16:27:00,
2013-07-14 12:32:00,88.6,69.8,30.24,North,5,2.0,11.0,54,0.00,,,0.00,939,HR-IXPWINDi_r2_v1.2.,2013-07-14 16:32:00,
2013-07-14 12:38:00,88.3,69.5,30.24,North,11,5.0,11.0,54,0.00,,,0.00,956,HR-IXPWINDi_r2_v1.2.,2013-07-14 16:38:00,
2013-07-14 12:43:00,89.2,69.8,30.24,NNE,23,5.0,10.0,53,0.00,,,0.00,1000,HR-IXPWINDi_r2_v1.2.,2013-07-14 16:43:00,
2013-07-14 12:48:00,88.6,69.8,30.24,NW,311,8.0,10.0,54,0.00,,,0.00,288,HR-IXPWINDi_r2_v1.2.,2013-07-14 16:48:00,
2013-07-14 12:53:00,88.6,70.3,30.24,SW,218,5.0,10.0,55,0.00,,,0.00,1058,HR-IXPWINDi_r2_v1.2.,2013-07-14 16:53:00,
2013-07-14 12:58:00,88.9,69.5,30.24,SW,214,6.0,11.0,53,0.00,,,0.00,1071,HR-IXPWINDi_r2_v1.2.,2013-07-14 16:58:00,
2013-07-14 13:03:00,89.1,70.3,30.24,SW,231,8.0,11.0,54,0.00,,,0.00,1055,HR-IXPWINDi_r2_v1.2.,2013-07-14 17:03:00,
2013-07-14 13:09:00,87.0,72.8,30.24,ENE,74,5.0,11.0,63,0.00,,,0.00,244,HR-IXPWINDi_r2_v1.2.,2013-07-14 17:09:00,
2013-07-14 13:14:00,84.1,70.6,30.24,East,92,1.0,11.0,64,0.00,,,0.00,316,HR-IXPWINDi_r2_v1.2.,2013-07-14 17:14:00,
2013-07-14 13:19:00,84.3,72.1,30.24,ESE,119,5.0,9.0,67,0.00,,,0.00,322,HR-IXPWINDi_r2_v1.2.,2013-07-14 17:19:00,
2013-07-14 13:24:00,82.9,71.6,30.24,SSE,163,6.0,9.0,69,0.00,,,0.00,193,HR-IXPWINDi_r2_v1.2.,2013-07-14 17:24:00,
2013-07-14 13:30:00,82.0,72.4,30.24,SE,141,3.0,11.0,73,0.00,,,0.00,953,HR-IXPWINDi_r2_v1.2.,2013-07-14 17:30:00,
2013-07-14 13:35:00,83.0,73.0,30.24,SSE,147,4.0,11.0,72,0.00,,,0.00,916,HR-IXPWINDi_r2_v1.2.,2013-07-14 17:35:00,
2013-07-14 13:40:00,84.0,72.3,30.23,SE,138,8.0,9.0,68,0.00,,,0.00,909,HR-IXPWINDi_r2_v1.2.,2013-07-14 17:40:00,
2013-07-14 13:45:00,84.7,72.9,30.23,ESE,107,2.0,9.0,68,0.00,,,0.00,928,HR-IXPWINDi_r2_v1.2.,2013-07-14 17:45:00,
2013-07-14 13:51:00,84.1,72.3,30.23,SSE,149,7.0,10.0,68,0.00,,,0.00,963,HR-IXPWINDi_r2_v1.2.,2013-07-14 17:51:00,
2013-07-14 13:56:00,82.8,72.4,30.23,SE,134,6.0,10.0,71,0.00,,,0.00,960,HR-IXPWINDi_r2_v1.2.,2013-07-14 17:56:00,
2013-07-14 14:01:00,82.9,72.9,30.23,ESE,120,9.0,10.0,72,0.00,,,0.00,947,HR-IXPWINDi_r2_v1.2.,2013-07-14 18:01:00,
2013-07-14 14:06:00,82.2,72.6,30.23,SE,126,3.0,9.0,73,0.00,,,0.00,171,HR-IXPWINDi_r2_v1.2.,2013-07-14 18:06:00,
2013-07-14 14:12:00,81.6,72.5,30.23,SSE,153,7.0,9.0,74,0.00,,,0.00,933,HR-IXPWINDi_r2_v1.2.,2013-07-14 18:12:00,
2013-07-14 14:17:00,82.7,72.3,30.23,SE,138,9.0,9.0,71,0.00,,,0.00,932,HR-IXPWINDi_r2_v1.2.,2013-07-14 18:17:00,
2013-07-14 14:22:00,82.3,73.1,30.23,East,86,6.0,9.0,74,0.00,,,0.00,932,HR-IXPWINDi_r2_v1.2.,2013-07-14 18:22:00,
2013-07-14 14:27:00,82.3,72.3,30.22,ESE,122,5.0,9.0,72,0.00,,,0.00,211,HR-IXPWINDi_r2_v1.2.,2013-07-14 18:27:00,
2013-07-14 14:32:00,81.5,72.0,30.22,ESE,123,8.0,9.0,73,0.00,,,0.00,221,HR-IXPWINDi_r2_v1.2.,2013-07-14 18:32:00,
2013-07-14 14:38:00,81.0,72.3,30.23,SSE,148,5.0,9.0,75,0.00,,,0.00,209,HR-IXPWINDi_r2_v1.2.,2013-07-14 18:38:00,
2013-07-14 14:43:00,80.5,72.6,30.23,SSE,152,4.0,9.0,77,0.00,,,0.00,257,HR-IXPWINDi_r2_v1.2.,2013-07-14 18:43:00,
2013-07-14 14:48:00,79.6,72.5,30.22,SE,129,7.0,11.0,79,0.00,,,0.00,534,HR-IXPWINDi_r2_v1.2.,2013-07-14 18:48:00,
2013-07-14 14:53:00,80.0,72.8,30.22,East,98,3.0,12.0,79,0.00,,,0.00,960,HR-IXPWINDi_r2_v1.2.,2013-07-14 18:53:00,
2013-07-14 14:58:00,79.5,72.4,30.23,East,85,7.0,13.0,79,0.00,,,0.00,274,HR-IXPWINDi_r2_v1.2.,2013-07-14 18:58:00,
2013-07-14 15:03:00,79.6,72.8,30.23,ENE,71,9.0,13.0,80,0.00,,,0.00,258,HR-IXPWINDi_r2_v1.2.,2013-07-14 19:03:00,
2013-07-14 15:09:00,79.1,72.7,30.22,ENE,77,5.0,12.0,81,0.00,,,0.00,220,HR-IXPWINDi_r2_v1.2.,2013-07-14 19:09:00,
2013-07-14 15:14:00,79.1,72.3,30.23,ENE,73,7.0,12.0,80,0.00,,,0.00,232,HR-IXPWINDi_r2_v1.2.,2013-07-14 19:14:00,
2013-07-14 15:19:00,78.8,72.8,30.23,NE,55,9.0,11.0,82,0.00,,,0.00,165,HR-IXPWINDi_r2_v1.2.,2013-07-14 19:19:00,
2013-07-14 15:24:00,78.0,72.4,30.23,NE,38,6.0,14.0,83,0.00,,,0.00,193,HR-IXPWINDi_r2_v1.2.,2013-07-14 19:24:00,
2013-07-14 15:29:00,77.9,72.6,30.23,ENE,60,5.0,14.0,84,0.00,,,0.00,243,HR-IXPWINDi_r2_v1.2.,2013-07-14 19:29:00,
2013-07-14 15:35:00,77.8,72.2,30.22,East,88,7.0,11.0,83,0.00,,,0.00,258,HR-IXPWINDi_r2_v1.2.,2013-07-14 19:35:00,
2013-07-14 15:40:00,77.7,72.1,30.23,ESE,111,5.0,9.0,83,0.00,,,0.00,202,HR-IXPWINDi_r2_v1.2.,2013-07-14 19:40:00,
2013-07-14 15:45:00,78.1,72.1,30.22,ENE,68,0.0,9.0,82,0.00,,,0.00,197,HR-IXPWINDi_r2_v1.2.,2013-07-14 19:45:00,
2013-07-14 15:50:00,77.4,71.8,30.22,ENE,76,1.0,11.0,83,0.00,,,0.00,230,HR-IXPWINDi_r2_v1.2.,2013-07-14 19:50:00,
2013-07-14 15:55:00,77.2,71.9,30.22,ESE,114,3.0,11.0,84,0.00,,,0.00,200,HR-IXPWINDi_r2_v1.2.,2013-07-14 19:55:00,
2013-07-14 16:00:00,77.0,71.7,30.22,ESE,119,5.0,10.0,84,0.00,,,0.00,160,HR-IXPWINDi_r2_v1.2.,2013-07-14 20:00:00,
2013-07-14 16:05:00,77.2,72.3,30.22,NE,54,2.0,10.0,85,0.00,,,0.00,156,HR-IXPWINDi_r2_v1.2.,2013-07-14 20:05:00,
2013-07-14 16:10:00,77.1,72.2,30.22,East,97,5.0,10.0,85,0.00,,,0.00,158,HR-IXPWINDi_r2_v1.2.,2013-07-14 20:10:00,
2013-07-14 16:16:00,76.7,71.8,30.22,ENE,65,5.0,8.0,85,0.00,,,0.00,130,HR-IXPWINDi_r2_v1.2.,2013-07-14 20:16:00,
2013-07-14 16:21:00,76.8,72.2,30.22,ENE,75,2.0,9.0,86,0.00,,,0.00,132,HR-IXPWINDi_r2_v1.2.,2013-07-14 20:21:00,
2013-07-14 16:26:00,77.1,72.2,30.22,NE,38,5.0,9.0,85,0.00,,,0.00,158,HR-IXPWINDi_r2_v1.2.,2013-07-14 20:26:00,
2013-07-14 16:31:00,77.2,72.3,30.22,ENE,71,8.0,9.0,85,0.00,,,0.00,200,HR-IXPWINDi_r2_v1.2.,2013-07-14 20:31:00,
2013-07-14 16:36:00,77.6,72.7,30.22,ENE,71,3.0,10.0,85,0.00,,,0.00,216,HR-IXPWINDi_r2_v1.2.,2013-07-14 20:36:00,
2013-07-14 16:42:00,77.6,72.3,30.21,East,90,5.0,10.0,84,0.00,,,0.00,209,HR-IXPWINDi_r2_v1.2.,2013-07-14 20:42:00,
2013-07-14 16:47:00,78.0,72.4,30.21,NNE,24,2.0,7.0,83,0.00,,,0.00,218,HR-IXPWINDi_r2_v1.2.,2013-07-14 20:47:00,
2013-07-14 16:52:00,78.2,72.6,30.21,ENE,69,4.0,7.0,83,0.00,,,0.00,250,HR-IXPWINDi_r2_v1.2.,2013-07-14 20:52:00,
2013-07-14 16:57:00,78.2,72.6,30.21,NE,46,1.0,7.0,83,0.00,,,0.00,287,HR-IXPWINDi_r2_v1.2.,2013-07-14 20:57:00,
2013-07-14 17:02:00,78.2,72.6,30.21,NE,54,6.0,7.0,83,0.00,,,0.00,306,HR-IXPWINDi_r2_v1.2.,2013-07-14 21:02:00,
2013-07-14 17:07:00,78.9,72.9,30.21,East,96,1.0,7.0,82,0.00,,,0.00,589,HR-IXPWINDi_r2_v1.2.,2013-07-14 21:07:00,
2013-07-14 17:13:00,79.5,73.1,30.21,NE,56,3.0,7.0,81,0.00,,,0.00,330,HR-IXPWINDi_r2_v1.2.,2013-07-14 21:13:00,
2013-07-14 17:18:00,80.0,73.2,30.21,ENE,65,5.0,7.0,80,0.00,,,0.00,334,HR-IXPWINDi_r2_v1.2.,2013-07-14 21:18:00,
2013-07-14 17:23:00,79.6,72.8,30.21,East,88,5.0,7.0,80,0.00,,,0.00,287,HR-IXPWINDi_r2_v1.2.,2013-07-14 21:23:00,
2013-07-14 17:28:00,79.9,73.1,30.21,East,79,2.0,7.0,80,0.00,,,0.00,605,HR-IXPWINDi_r2_v1.2.,2013-07-14 21:28:00,
2013-07-14 17:33:00,79.7,72.9,30.21,East,101,6.0,8.0,80,0.00,,,0.00,269,HR-IXPWINDi_r2_v1.2.,2013-07-14 21:33:00,
2013-07-14 17:38:00,79.6,72.8,30.21,ESE,102,3.0,8.0,80,0.00,,,0.00,540,HR-IXPWINDi_r2_v1.2.,2013-07-14 21:38:00,
2013-07-14 17:43:00,80.3,73.1,30.20,ENE,67,2.0,8.0,79,0.00,,,0.00,308,HR-IXPWINDi_r2_v1.2.,2013-07-14 21:43:00,
2013-07-14 17:48:00,80.1,72.9,30.20,East,90,3.0,6.0,79,0.00,,,0.00,383,HR-IXPWINDi_r2_v1.2.,2013-07-14 21:48:00,
2013-07-14 17:53:00,79.3,72.9,30.20,ENE,63,1.0,8.0,81,0.00,,,0.00,204,HR-IXPWINDi_r2_v1.2.,2013-07-14 21:53:00,
2013-07-14 17:58:00,79.7,73.3,30.21,East,101,0.0,8.0,81,0.00,,,0.00,373,HR-IXPWINDi_r2_v1.2.,2013-07-14 21:58:00,
2013-07-14 18:03:00,80.3,73.1,30.21,ESE,114,1.0,7.0,79,0.00,,,0.00,178,HR-IXPWINDi_r2_v1.2.,2013-07-14 22:03:00,
2013-07-14 18:09:00,78.9,72.5,30.21,ESE,110,0.0,5.0,81,0.00,,,0.00,352,HR-IXPWINDi_r2_v1.2.,2013-07-14 22:09:00,
2013-07-14 18:14:00,79.0,72.6,30.21,SE,144,0.0,5.0,81,0.00,,,0.00,323,HR-IXPWINDi_r2_v1.2.,2013-07-14 22:14:00,
2013-07-14 18:19:00,79.0,72.6,30.21,SE,136,1.0,6.0,81,0.00,,,0.00,306,HR-IXPWINDi_r2_v1.2.,2013-07-14 22:19:00,
2013-07-14 18:25:00,79.1,73.1,30.21,ESE,122,0.0,6.0,82,0.00,,,0.00,294,HR-IXPWINDi_r2_v1.2.,2013-07-14 22:25:00,
2013-07-14 18:30:00,79.1,72.7,30.21,SE,134,1.0,4.0,81,0.00,,,0.00,279,HR-IXPWINDi_r2_v1.2.,2013-07-14 22:30:00,
2013-07-14 18:35:00,79.0,72.6,30.21,South,177,2.0,7.0,81,0.00,,,0.00,257,HR-IXPWINDi_r2_v1.2.,2013-07-14 22:35:00,
2013-07-14 18:40:00,78.9,72.9,30.21,SE,134,4.0,7.0,82,0.00,,,0.00,86,HR-IXPWINDi_r2_v1.2.,2013-07-14 22:40:00,
2013-07-14 18:45:00,78.5,72.9,30.21,SE,129,0.0,4.0,83,0.00,,,0.00,197,HR-IXPWINDi_r2_v1.2.,2013-07-14 22:45:00,
2013-07-14 18:50:00,78.9,72.9,30.21,ENE,72,2.0,4.0,82,0.00,,,0.00,186,HR-IXPWINDi_r2_v1.2.,2013-07-14 22:50:00,
2013-07-14 18:56:00,79.2,73.2,30.20,East,92,0.0,3.0,82,0.00,,,0.00,148,HR-IXPWINDi_r2_v1.2.,2013-07-14 22:56:00,
2013-07-14 19:01:00,79.3,73.3,30.20,SE,134,1.0,4.0,82,0.00,,,0.00,142,HR-IXPWINDi_r2_v1.2.,2013-07-14 23:01:00,
2013-07-14 19:06:00,79.5,73.1,30.20,ESE,122,0.0,4.0,81,0.00,,,0.00,54,HR-IXPWINDi_r2_v1.2.,2013-07-14 23:06:00,
2013-07-14 19:11:00,79.4,73.0,30.20,East,93,2.0,3.0,81,0.00,,,0.00,54,HR-IXPWINDi_r2_v1.2.,2013-07-14 23:11:00,
2013-07-14 19:16:00,78.8,72.8,30.20,East,101,2.0,3.0,82,0.00,,,0.00,83,HR-IXPWINDi_r2_v1.2.,2013-07-14 23:16:00,
2013-07-14 19:21:00,78.9,73.2,30.20,ESE,105,2.0,3.0,83,0.00,,,0.00,69,HR-IXPWINDi_r2_v1.2.,2013-07-14 23:21:00,
2013-07-14 19:26:00,78.8,73.1,30.20,SSE,150,1.0,3.0,83,0.00,,,0.00,56,HR-IXPWINDi_r2_v1.2.,2013-07-14 23:26:00,
2013-07-14 19:31:00,78.7,73.0,30.20,SE,126,0.0,3.0,83,0.00,,,0.00,37,HR-IXPWINDi_r2_v1.2.,2013-07-14 23:31:00,
2013-07-14 19:36:00,78.7,73.0,30.20,SE,128,2.0,3.0,83,0.00,,,0.00,35,HR-IXPWINDi_r2_v1.2.,2013-07-14 23:36:00,
2013-07-14 19:42:00,78.4,73.1,30.20,SE,131,0.0,3.0,84,0.00,,,0.00,28,HR-IXPWINDi_r2_v1.2.,2013-07-14 23:42:00,
2013-07-14 19:47:00,78.0,73.1,30.20,SE,146,0.0,3.0,85,0.00,,,0.00,25,HR-IXPWINDi_r2_v1.2.,2013-07-14 23:47:00,
2013-07-14 19:52:00,77.8,73.2,30.20,SE,126,0.0,2.0,86,0.00,,,0.00,19,HR-IXPWINDi_r2_v1.2.,2013-07-14 23:52:00,
2013-07-14 19:57:00,77.9,73.3,30.20,SSE,154,0.0,2.0,86,0.00,,,0.00,16,HR-IXPWINDi_r2_v1.2.,2013-07-14 23:57:00,
2013-07-14 20:02:00,77.5,72.9,30.20,SSE,154,0.0,2.0,86,0.00,,,0.00,12,HR-IXPWINDi_r2_v1.2.,2013-07-15 00:02:00,
2013-07-14 20:07:00,77.0,72.8,30.20,SSE,155,1.0,2.0,87,0.00,,,0.00,9,HR-IXPWINDi_r2_v1.2.,2013-07-15 00:07:00,
2013-07-14 20:13:00,76.5,72.6,30.20,SSE,161,0.0,2.0,88,0.00,,,0.00,7,HR-IXPWINDi_r2_v1.2.,2013-07-15 00:13:00,
2013-07-14 20:18:00,76.2,72.3,30.20,SSE,161,0.0,2.0,88,0.00,,,0.00,5,HR-IXPWINDi_r2_v1.2.,2013-07-15 00:18:00,
2013-07-14 20:23:00,75.8,72.3,30.20,SSE,161,0.0,1.0,89,0.00,,,0.00,0,HR-IXPWINDi_r2_v1.2.,2013-07-15 00:23:00,
2013-07-14 20:28:00,75.8,72.3,30.20,SSE,161,0.0,1.0,89,0.00,,,0.00,0,HR-IXPWINDi_r2_v1.2.,2013-07-15 00:28:00,
2013-07-14 20:33:00,75.9,72.4,30.20,SSE,161,0.0,0.0,89,0.00,,,0.00,0,HR-IXPWINDi_r2_v1.2.,2013-07-15 00:33:00,
2013-07-14 20:38:00,75.9,72.7,30.20,SSE,161,0.0,0.0,90,0.00,,,0.00,0,HR-IXPWINDi_r2_v1.2.,2013-07-15 00:38:00,
2013-07-14 20:44:00,75.9,72.7,30.20,SSE,161,0.0,0.0,90,0.00,,,0.00,0,HR-IXPWINDi_r2_v1.2.,2013-07-15 00:44:00,
2013-07-14 20:49:00,75.8,72.6,30.20,SSE,161,0.0,0.0,90,0.00,,,0.00,0,HR-IXPWINDi_r2_v1.2.,2013-07-15 00:49:00,
2013-07-14 20:54:00,75.8,72.6,30.20,SSE,161,0.0,0.0,90,0.00,,,0.00,0,HR-IXPWINDi_r2_v1.2.,2013-07-15 00:54:00,
2013-07-14 20:59:00,75.8,72.6,30.20,SSE,161,0.0,0.0,90,0.00,,,0.00,0,HR-IXPWINDi_r2_v1.2.,2013-07-15 00:59:00,
2013-07-14 21:04:00,75.9,72.7,30.21,SSE,161,0.0,0.0,90,0.00,,,0.00,0,HR-IXPWINDi_r2_v1.2.,2013-07-15 01:04:00,
2013-07-14 21:09:00,76.0,72.8,30.21,SSE,161,0.0,0.0,90,0.00,,,0.00,0,HR-IXPWINDi_r2_v1.2.,2013-07-15 01:09:00,
2013-07-14 21:15:00,76.0,72.8,30.21,SSE,161,0.0,0.0,90,0.00,,,0.00,0,HR-IXPWINDi_r2_v1.2.,2013-07-15 01:15:00,
2013-07-14 21:20:00,76.0,72.8,30.21,SSE,161,0.0,0.0,90,0.00,,,0.00,0,HR-IXPWINDi_r2_v1.2.,2013-07-15 01:20:00,
2013-07-14 21:25:00,76.0,72.8,30.21,SSE,161,0.0,0.0,90,0.00,,,0.00,0,HR-IXPWINDi_r2_v1.2.,2013-07-15 01:25:00,
2013-07-14 21:30:00,75.9,72.7,30.21,SSE,161,0.0,0.0,90,0.00,,,0.00,0,HR-IXPWINDi_r2_v1.2.,2013-07-15 01:30:00,
2013-07-14 21:36:00,75.9,72.7,30.21,SSE,161,0.0,0.0,90,0.00,,,0.00,0,HR-IXPWINDi_r2_v1.2.,2013-07-15 01:36:00,
2013-07-14 21:41:00,75.9,72.7,30.21,SSE,161,0.0,0.0,90,0.00,,,0.00,0,HR-IXPWINDi_r2_v1.2.,2013-07-15 01:41:00,
2013-07-14 21:46:00,75.8,72.6,30.20,SSE,161,0.0,0.0,90,0.00,,,0.00,0,HR-IXPWINDi_r2_v1.2.,2013-07-15 01:46:00,
2013-07-14 21:51:00,75.6,72.7,30.20,SSE,161,0.0,0.0,91,0.00,,,0.00,0,HR-IXPWINDi_r2_v1.2.,2013-07-15 01:51:00,
2013-07-14 21:56:00,75.5,72.6,30.20,SSE,161,0.0,0.0,91,0.00,,,0.00,0,HR-IXPWINDi_r2_v1.2.,2013-07-15 01:56:00,
2013-07-14 22:02:00,75.3,72.4,30.20,SSE,161,0.0,0.0,91,0.00,,,0.00,0,HR-IXPWINDi_r2_v1.2.,2013-07-15 02:02:00,
2013-07-14 22:07:00,75.3,72.4,30.20,SSE,161,0.0,0.0,91,0.00,,,0.00,0,HR-IXPWINDi_r2_v1.2.,2013-07-15 02:07:00,
2013-07-14 22:12:00,75.3,72.4,30.20,SSE,161,0.0,0.0,91,0.00,,,0.00,0,HR-IXPWINDi_r2_v1.2.,2013-07-15 02:12:00,
2013-07-14 22:17:00,75.3,72.8,30.20,South,180,0.0,2.0,92,0.00,,,0.00,0,HR-IXPWINDi_r2_v1.2.,2013-07-15 02:17:00,
2013-07-14 22:22:00,75.5,73.0,30.20,South,180,0.0,2.0,92,0.00,,,0.00,0,HR-IXPWINDi_r2_v1.2.,2013-07-15 02:22:00,
2013-07-14 22:27:00,75.8,73.3,30.20,South,180,0.0,1.0,92,0.00,,,0.00,0,HR-IXPWINDi_r2_v1.2.,2013-07-15 02:27:00,
2013-07-14 22:33:00,75.8,72.9,30.20,South,180,0.0,1.0,91,0.00,,,0.00,0,HR-IXPWINDi_r2_v1.2.,2013-07-15 02:33:00,
2013-07-14 22:38:00,76.0,73.1,30.20,South,180,0.0,1.0,91,0.00,,,0.00,0,HR-IXPWINDi_r2_v1.2.,2013-07-15 02:38:00,
2013-07-14 22:43:00,76.2,73.0,30.20,South,180,0.0,1.0,90,0.00,,,0.00,0,HR-IXPWINDi_r2_v1.2.,2013-07-15 02:43:00,
2013-07-14 22:48:00,76.4,73.2,30.20,South,180,0.0,1.0,90,0.00,,,0.00,0,HR-IXPWINDi_r2_v1.2.,2013-07-15 02:48:00,
2013-07-14 22:54:00,76.6,73.1,30.20,South,180,0.0,1.0,89,0.00,,,0.00,0,HR-IXPWINDi_r2_v1.2.,2013-07-15 02:54:00,
2013-07-14 22:59:00,77.0,73.1,30.20,South,182,0.0,2.0,88,0.00,,,0.00,0,HR-IXPWINDi_r2_v1.2.,2013-07-15 02:59:00,
2013-07-14 23:04:00,77.2,73.3,30.20,SW,234,2.0,3.0,88,0.00,,,0.00,0,HR-IXPWINDi_r2_v1.2.,2013-07-15 03:04:00,
2013-07-14 23:10:00,77.3,73.4,30.20,SW,234,1.0,3.0,88,0.00,,,0.00,0,HR-IXPWINDi_r2_v1.2.,2013-07-15 03:10:00,
2013-07-14 23:15:00,77.4,73.2,30.20,SW,234,1.0,3.0,87,0.00,,,0.00,0,HR-IXPWINDi_r2_v1.2.,2013-07-15 03:15:00,
2013-07-14 23:20:00,77.5,73.3,30.20,SW,234,0.0,2.0,87,0.00,,,0.00,0,HR-IXPWINDi_r2_v1.2.,2013-07-15 03:20:00,
2013-07-14 23:25:00,77.5,73.3,30.20,SW,234,0.0,2.0,87,0.00,,,0.00,0,HR-IXPWINDi_r2_v1.2.,2013-07-15 03:25:00,
2013-07-14 23:30:00,77.5,73.3,30.20,SW,234,2.0,2.0,87,0.00,,,0.00,0,HR-IXPWINDi_r2_v1.2.,2013-07-15 03:30:00,
2013-07-14 23:35:00,77.6,73.0,30.20,SW,234,1.0,3.0,86,0.00,,,0.00,0,HR-IXPWINDi_r2_v1.2.,2013-07-15 03:35:00,
2013-07-14 23:40:00,77.7,73.1,30.20,SW,234,1.0,4.0,86,0.00,,,0.00,0,HR-IXPWINDi_r2_v1.2.,2013-07-15 03:40:00,
2013-07-14 23:45:00,77.5,72.9,30.20,SW,234,0.0,4.0,86,0.00,,,0.00,0,HR-IXPWINDi_r2_v1.2.,2013-07-15 03:45:00,
2013-07-14 23:50:00,77.5,73.3,30.20,SW,234,1.0,2.0,87,0.00,,,0.00,0,HR-IXPWINDi_r2_v1.2.,2013-07-15 03:50:00,
2013-07-14 23:55:00,77.6,73.7,30.20,SW,234,2.0,3.0,88,0.00,,,0.00,0,HR-IXPWINDi_r2_v1.2.,2013-07-15 03:55:00,